This is the latest recevied weather packets stored in our database for station/object N0FDH. If no packets are shown the sender has not sent any weather packets the latest 10 day(s).
| Time | Temp. | Humidity | Pressure | Rain* | Wind** | Luminosity | Snow |
|---|---|---|---|---|---|---|---|
| 1777578565 | 6.67° C | 48% | 1016.8 hPa | 0 mm | - | 202 W/m² | - |
| 1777578259 | 6.67° C | 50% | 1016.8 hPa | 0 mm | - | 172 W/m² | - |
| 1777577955 | 7.22° C | 51% | 1016.7 hPa | 0 mm | - | 228 W/m² | - |
| 1777577651 | 6.67° C | 48% | 1016.6 hPa | 0 mm | - | 281 W/m² | - |
| 1777577349 | 6.67° C | 46% | 1016.8 hPa | 0 mm | - | 215 W/m² | - |
| 1777577044 | 6.67° C | 46% | 1016.8 hPa | 0 mm | - | 258 W/m² | - |
| 1777576741 | 6.67° C | 46% | 1016.8 hPa | 0 mm | - | 206 W/m² | - |
| 1777576439 | 7.22° C | 47% | 1016.7 hPa | 0 mm | - | 340 W/m² | - |
| 1777576137 | 7.22° C | 48% | 1016.9 hPa | 0 mm | - | 310 W/m² | - |
| 1777575832 | 6.67° C | 49% | 1016.8 hPa | 0 mm | - | 836 W/m² | - |
| 1777575529 | 6.11° C | 48% | 1017.1 hPa | 0 mm | - | 265 W/m² | - |
| 1777575224 | 6.67° C | 47% | 1017 hPa | 0 mm | - | 234 W/m² | - |
| 1777574921 | 6.67° C | 48% | 1017 hPa | 0 mm | - | 246 W/m² | - |
| 1777574618 | 6.67° C | 46% | 1017.3 hPa | 0 mm | - | 296 W/m² | - |
| 1777574314 | 6.11° C | 50% | 1017 hPa | 0 mm | - | 285 W/m² | - |
| 1777574010 | 6.67° C | 48% | 1017.1 hPa | 0 mm | - | 235 W/m² | - |
| 1777573709 | 6.67° C | 52% | 1017 hPa | 0 mm | - | 324 W/m² | - |
| 1777573406 | 6.67° C | 48% | 1016.9 hPa | 0 mm | - | 943 W/m² | - |
| 1777573102 | 6.11° C | 49% | 1017 hPa | 0 mm | - | 308 W/m² | - |
| 1777572799 | 6.11° C | 50% | 1017.1 hPa | 0 mm | - | 272 W/m² | - |
| 1777572495 | 6.67° C | 47% | 1017.2 hPa | 0 mm | - | 246 W/m² | - |
| 1777572190 | 6.67° C | 49% | 1017.1 hPa | 0 mm | - | 289 W/m² | - |
| 1777571886 | 6.11° C | 51% | 1017.1 hPa | 0 mm | - | 315 W/m² | - |
| 1777571581 | 5.56° C | 50% | 1017.3 hPa | 0 mm | - | 274 W/m² | - |
| 1777571278 | 5.56° C | 54% | 1017.1 hPa | 0 mm | - | 245 W/m² | - |
* Rain latest hour (hover to see other rain measurements)
** Current wind speed in m/s (hover to see current wind gust speed)